Location: Balaclava NSW 2575, Australia
(34.4510°S, 150.4953°E)
Time: 13:13:41
(UTC+10:00)

Altair - All Passes

Search period start: 13 June 2021 00:00
Search period end: 23 June 2021 00:00
Orbit: 1501 x 1683 km, 47.2° (Epoch: 12 June)

Date Brightness Start Highest point End Pass type
(mag) Time Alt. Az. Time Alt. Az. Time Alt. Az.
13 Jun - 01:30:37 10° NNW 01:40:08 53° NE 01:49:21 10° ESE visible
13 Jun - 03:35:17 10° WNW 03:44:55 60° SSW 03:54:15 10° SE visible
13 Jun - 05:42:35 10° WSW 05:51:18 37° S 05:59:47 10° ESE visible
13 Jun - 07:48:46 10° SW 07:57:52 51° SSE 08:06:46 10° E daylight
13 Jun - 09:53:44 10° WSW 10:02:52 66° NW 10:11:55 10° NE daylight
13 Jun - 12:01:36 10° W 12:06:14 15° WNW 12:10:54 10° NNW daylight
14 Jun - 01:05:36 10° NNW 01:15:00 49° NE 01:24:06 10° ESE visible
14 Jun - 03:09:55 10° WNW 03:19:40 63° SSW 03:29:04 10° SE visible
14 Jun - 05:17:12 10° WSW 05:25:58 38° S 05:34:30 10° ESE visible
14 Jun - 07:23:33 10° SW 07:32:37 49° SSE 07:41:27 10° E daylight
14 Jun - 09:28:31 10° WSW 09:37:45 71° NW 09:46:51 10° NE daylight
14 Jun - 11:35:47 10° W 11:41:12 17° NW 11:46:38 10° NNW daylight
15 Jun - 00:40:36 10° NNW 00:49:52 45° NE 00:58:50 10° ESE visible
15 Jun - 02:44:36 10° WNW 02:54:25 67° SSW 03:03:54 10° SE visible
15 Jun - 04:51:48 10° WSW 05:00:38 38° S 05:09:13 10° ESE visible
15 Jun - 06:58:18 10° SW 07:07:20 47° SSE 07:16:07 10° E daylight
15 Jun - 09:03:18 10° WSW 09:12:36 77° NW 09:21:45 10° NE daylight
15 Jun - 11:10:06 10° W 11:16:09 20° NW 11:22:12 10° NNW daylight
16 Jun - 00:15:39 10° NNW 00:24:44 41° NE 00:33:33 10° ESE night (unlit)
16 Jun - 02:19:17 10° WNW 02:29:11 71° SSW 02:38:44 10° SE visible
16 Jun - 04:26:23 10° WSW 04:35:18 39° S 04:43:57 10° ESE visible
16 Jun - 06:33:03 10° SW 06:42:03 45° SSE 06:50:47 10° E visible
16 Jun - 08:38:05 10° SW 08:47:27 83° NW 08:56:38 10° NE daylight
16 Jun - 10:44:32 10° W 10:51:06 22° NW 10:57:41 10° N daylight
16 Jun - 23:50:44 10° NNW 23:59:37 37° NE 00:08:15 10° ESE night (unlit)
17 Jun - 01:53:59 10° WNW 02:03:57 76° SSW 02:13:35 10° SE visible
17 Jun - 04:00:58 10° WSW 04:09:58 40° S 04:18:41 10° ESE visible
17 Jun - 06:07:46 10° SW 06:16:45 43° SSE 06:25:27 10° E visible
17 Jun - 08:12:53 10° SW 08:22:18 89° NW 08:31:30 10° NE daylight
17 Jun - 10:19:01 10° WSW 10:26:03 25° NW 10:33:04 10° N daylight
17 Jun - 23:25:52 10° N 23:34:30 34° NE 23:42:55 10° ESE night (unlit)
18 Jun - 01:28:43 10° WNW 01:38:43 80° SW 01:48:24 10° SE visible
18 Jun - 03:35:32 10° W 03:44:38 41° SSW 03:53:27 10° ESE visible
18 Jun - 05:42:29 10° SW 05:51:27 42° SSE 06:00:07 10° E visible
18 Jun - 07:47:41 10° SW 07:57:08 86° SE 08:06:20 10° NE daylight
18 Jun - 09:53:34 10° WSW 10:01:00 28° NW 10:08:23 10° N daylight
18 Jun - 23:01:03 10° N 23:09:23 31° NE 23:17:31 10° ESE night (unlit)
19 Jun - 01:03:28 10° NW 01:13:31 85° SW 01:23:14 10° SE visible
19 Jun - 03:10:07 10° W 03:19:19 42° SSW 03:28:13 10° SE visible
19 Jun - 05:17:11 10° WSW 05:26:08 41° SSE 05:34:46 10° E visible
19 Jun - 07:22:29 10° SW 07:31:57 81° SE 07:41:09 10° ENE daylight
19 Jun - 09:28:10 10° WSW 09:35:56 31° NW 09:43:38 10° N daylight
19 Jun - 22:36:16 10° N 22:44:17 28° NE 22:52:06 10° ESE night (unlit)
20 Jun - 00:38:14 10° NW 00:48:18 89° NE 00:58:03 10° SE visible
20 Jun - 02:44:41 10° W 02:53:59 44° SSW 03:03:00 10° SE visible
20 Jun - 04:51:53 10° WSW 05:00:48 40° S 05:09:26 10° ESE visible
20 Jun - 06:57:16 10° SW 07:06:46 76° SSE 07:15:58 10° ENE daylight
20 Jun - 09:02:48 10° WSW 09:10:52 35° NW 09:18:51 10° N daylight
20 Jun - 22:11:34 10° N 22:19:10 25° NE 22:26:38 10° ESE night (unlit)
21 Jun - 00:13:00 10° NW 00:23:06 84° NE 00:32:52 10° SE night (unlit)
21 Jun - 02:19:16 10° W 02:28:40 46° SSW 02:37:46 10° SE visible
21 Jun - 04:26:33 10° WSW 04:35:29 39° S 04:44:06 10° ESE visible
21 Jun - 06:32:03 10° SW 06:41:34 71° SSE 06:50:45 10° ENE visible
21 Jun - 08:37:26 10° WSW 08:45:47 38° NW 08:54:00 10° NNE daylight
21 Jun - 21:46:56 10° N 21:54:05 22° NE 22:01:06 10° E night (unlit)
21 Jun - 23:47:49 10° NW 23:57:54 79° NE 00:07:41 10° SE night (unlit)
22 Jun - 01:53:51 10° W 02:03:22 48° SSW 02:12:34 10° SE visible
22 Jun - 04:01:12 10° WSW 04:10:08 39° S 04:18:46 10° ESE visible
22 Jun - 06:06:50 10° SW 06:16:21 67° SSE 06:25:31 10° ENE visible
22 Jun - 08:12:07 10° WSW 08:20:43 42° NW 08:29:08 10° NNE daylight
22 Jun - 21:22:23 10° NNE 21:28:59 20° NE 21:35:29 10° E night (unlit)
22 Jun - 23:22:39 10° NW 23:32:43 73° NE 23:42:29 10° ESE night (unlit)
